Location: Newark
(35.5000°N, 109.0000°E)
Time: 04:03:25
(UTC+00:00)

N. Korean satellite - Pass Details

Date: 02 October 2020
Orbit: 453 x 505 km, 97.2° (Epoch: 21 October)

Event Time Altitude Azimuth Distance (km) Brightness Sun altitude
Rises 21:09:29 0° 38° (NE) 2,540 10.9 -19.3°
Reaches altitude 10° 21:13:06 10° 77° (ENE) 1,638 10.5 -18.6°
Maximum altitude 21:14:00 11° 92° (E) 1,586 10.4 -18.4°
Drops below altitude 10° 21:14:53 10° 107° (ESE) 1,628 10.2 -18.2°
Sets 21:18:26 0° 146° (SSE) 2,482 10.5 -17.5°
